Columbus, OH

1:40 PM EDT on May 29, 2017 (GMT -0400)
Port Columbus International

Weather History for KCMH - August, 2014

Change the Weather History Date:

Saturday, August 16, 2014

  Actual Average Record
Temperature  
Mean Temperature 67 °F 74 °F  
Max Temperature 82 °F 84 °F 96 °F (1913)
Min Temperature 51 °F 64 °F 46 °F (1964)
Degree Days  
Heating Degree Days 0 0  
Month to date heating degree days 0 0  
Since 1 June heating degree days 1 19  
Since 1 July heating degree days 0 0  
Cooling Degree Days 2 9  
Month to date cooling degree days 131 155  
Year to date cooling degree days 826 763  
Since 1 June cooling degree days 671 681  
Growing Degree Days 16 (Base 50)    
Moisture  
Dew Point 55 °F    
Average Humidity 62    
Maximum Humidity 89    
Minimum Humidity 34    
Precipitation  
Precipitation T in 0.11 in 1.26 in (1934)
Month to date precipitation 1.60 1.71  
Year to date precipitation 27.21 26.08  
Snow  
Snow 0.00 in 0.00 in 0.00 in ()
Month to date snowfall 0.0 0.0  
Since 1 June snowfall 0.0 0.0  
Since 1 July snowfall 0.0 0.0  
Snow Depth 0.00 in    
Sea Level Pressure  
Sea Level Pressure 29.99 in    
Wind  
Wind Speed 5 mph (SW)    
Max Wind Speed 20 mph    
Max Gust Speed 23 mph    
Visibility 10 miles    
Events Rain    
T = Trace of Precipitation, MM = Missing Value Source: NWS Daily Summary

Daily Weather History Graph

Daily Weather History Graph

Search for Another Location

Airport or City:

Trip Planner

Search our weather history database for the weather conditions in past years. The results will help you decide how hot, cold, wet, or windy it might be!

Date:

Astronomy

Aug. 16, 2014 Rise Set
Actual Time 6:44 AM EDT 8:26 PM EDT
Civil Twilight 6:15 AM EDT 8:55 PM EDT
Nautical Twilight 5:40 AM EDT 9:30 PM EDT
Astronomical Twilight 5:02 AM EDT 10:07 PM EDT
Moon No Moon Rise 1:28 PM EDT (8/16)
Length of Visible Light 14h 40m
Length of Day
13h 42m
Waning Gibbous, 59% of the Moon is Illuminated
Aug 16
Waning Gibbous
Aug 17
Last Quarter
Aug 25
New
Sep 2
First Quarter
Sep 8
Full

Hourly Weather History & Observations

Time (EDT) Temp. Dew Point Humidity Pressure Visibility Wind Dir Wind Speed Gust Speed Precip Events Conditions
1:51 AM 55.9 °F 50.0 °F 80% 30.01 in 10.0 mi Calm Calm - N/A   Clear
2:51 AM 55.0 °F 48.0 °F 77% 30.01 in 10.0 mi Calm Calm - N/A   Clear
3:51 AM 53.6 °F 48.2 °F 82% 30.01 in 10.0 mi Calm Calm - N/A   Clear
4:51 AM 54.0 °F 48.0 °F 80% 29.99 in 10.0 mi Calm Calm - N/A   Clear
5:51 AM 53.1 °F 48.0 °F 83% 30.01 in 10.0 mi Calm Calm - N/A   Clear
6:51 AM 52.0 °F 48.0 °F 86% 30.01 in 10.0 mi Calm Calm - N/A   Partly Cloudy
7:51 AM 55.0 °F 48.0 °F 77% 30.02 in 10.0 mi Calm Calm - N/A   Partly Cloudy
8:51 AM 60.8 °F 48.2 °F 63% 30.03 in 10.0 mi Calm Calm - N/A   Partly Cloudy
9:51 AM 66.0 °F 48.9 °F 54% 30.01 in 10.0 mi South 3.5 mph - N/A   Partly Cloudy
10:51 AM 71.6 °F 48.2 °F 43% 30.02 in 10.0 mi SSW 5.8 mph - N/A   Partly Cloudy
11:51 AM 75.9 °F 50.0 °F 40% 30.01 in 10.0 mi WSW 6.9 mph - N/A   Partly Cloudy
12:51 PM 78.1 °F 50.0 °F 37% 30.00 in 10.0 mi SW 8.1 mph - N/A   Scattered Clouds
1:51 PM 82.0 °F 51.1 °F 34% 29.99 in 10.0 mi SW 12.7 mph - N/A   Mostly Cloudy
2:51 PM 79.0 °F 55.9 °F 45% 29.98 in 10.0 mi WSW 11.5 mph - N/A   Overcast
3:51 PM 75.2 °F 59.0 °F 57% 30.00 in 7.0 mi SW 15.0 mph - N/A Rain Light Rain
4:51 PM 72.0 °F 62.1 °F 71% 29.98 in 9.0 mi SSW 3.5 mph - 0.00 in Rain Light Rain
5:51 PM 73.0 °F 62.1 °F 68% 29.97 in 10.0 mi SSW 5.8 mph - 0.00 in   Overcast
6:51 PM 73.0 °F 63.0 °F 71% 29.96 in 10.0 mi SSW 5.8 mph - 0.00 in   Overcast
7:51 PM 73.4 °F 62.6 °F 69% 29.97 in 10.0 mi SW 6.9 mph - N/A   Overcast
8:43 PM 75.2 °F 62.6 °F 65% 29.97 in 10.0 mi WSW 5.8 mph - N/A   Overcast
8:51 PM 73.9 °F 63.0 °F 68% 29.95 in 10.0 mi SW 6.9 mph - N/A   Overcast
9:51 PM 73.4 °F 62.6 °F 69% 29.97 in 10.0 mi SSW 6.9 mph - N/A   Overcast
10:51 PM 73.0 °F 64.0 °F 73% 29.96 in 10.0 mi SW 4.6 mph - N/A   Mostly Cloudy
11:51 PM 73.0 °F 64.9 °F 76% 29.96 in 10.0 mi WSW 3.5 mph - N/A   Overcast